Regional Weather Roundup
Issued by NWS Green Bay, WI

Home | Current Version | Previous Version | Text Only | Print | Product List | Glossary On
Versions: 1 2 3 4 5 6 7 8 9 10 11 12 13 14 15 16 17 18 19 20 21 22 23 24 25 26 27 28 29 30 31 32 33 34 35 36 37 38 39 40 41 42 43 44 45 46 47 48 49 50
649
ASUS43 KGRB 181011
RWRGRB

NORTH-CENTRAL AND NORTHEAST WISCONSIN REGIONAL WEATHER ROUNDUP
NATIONAL WEATHER SERVICE GREEN BAY WI
400 AM CST WED JAN 18 2017

WIZ005-009-010>012-018-019-181100-
NORTH CENTRAL WISCONSIN

CITY           SKY/WX    TMP DP  RH WIND       PRES   REMARKS
IRONWOOD       CLOUDY    29  23  78 SW13      29.84S
MANITOWISH WTR CLOUDY    24  24 100 SW6       29.87S FOG
ARBOR VITAE    CLOUDY    26  24  93 SW5       29.88S FOG
EAGLE RIVER    CLOUDY    17  16  96 SW5       29.88R FOG     WCI  10
LAND O LAKES   CLEAR     17  15  95 CALM      29.87F
RHINELANDER    FOG       28  27  96 SW10      29.90R VSB 1/2
PHILLIPS       CLOUDY   N/A N/A N/A SW8       29.90S HAZE
ANTIGO         FOG       24  24  99 SW6       29.93S VSB 1/2
TOMAHAWK       CLOUDY    27  26  96 CALM      29.92R FOG
MERRILL        FOG       28  28 100 CALM        N/A  VSB 3/4
$$

WIZ013-073-181100-
NORTHEAST WISCONSIN

CITY           SKY/WX    TMP DP  RH WIND       PRES   REMARKS
IRON MOUNTAIN  CLOUDY    14   9  80 CALM      29.88R HAZE
MARINETTE      NOT AVBL
OCONTO         CLOUDY    31  31 100 SW5       29.95S VSB 1/2
$$

WIZ017-030-035>037-045-181100-
CENTRAL WISCONSIN

CITY           SKY/WX    TMP DP  RH WIND       PRES   REMARKS
MEDFORD        FOG       28  28  99 SW8       29.93S VSB 1/4
WAUSAU         FOG       28  28 100 SW8       29.94S VSB 3/4
MOSINEE        FOG       30  30 100 SW8       29.97S VSB 1/4
MARSHFIELD     FOG       30  29  96 SW12      29.96R VSB 1/4
WISC RAPIDS    FOG       32  32 100 SW12      30.00S VSB 3/4
STEVENS POINT  FOG       30  30 100 SW6       29.98S VSB 1/2
WAUPACA        CLOUDY    33  32  95 CALM      29.99S FOG
SHAWANO        CLOUDY    33  32  96 CALM      29.96S FOG
CLINTONVILLE   CLOUDY    32  32 100 SW8       29.98R FOG
WAUTOMA        FOG       32  32 100 SW10      30.01S VSB 1
$$

WIZ038-039-048-051-181100-
FOX VALLEY

CITY           SKY/WX    TMP DP  RH WIND       PRES   REMARKS
NWS GREEN BAY  FOG       34  34 100 SW9       29.98R VSB 1
APPLETON       FOG       32  32 100 W7        29.97S VSB 1/4
OSHKOSH        FOG       32  32 100 W8        29.99S VSB 1/2
FOND DU LAC    FOG       33  30  88 W10       30.01R VSB 1/2
$$

WIZ022-050-052-181100-
EAST CENTRAL WISCONSIN

CITY           SKY/WX    TMP DP  RH WIND       PRES   REMARKS
EPHRAIM        FOG       32  32 100 SW5       29.93F VSB 1/2
WASHINGTON ISL CLOUDY    32  32 100 SW7       29.93F
STURGEON BAY   FOG       32  31  96 SW7       29.96S VSB 1/4
MANITOWOC      FOG       33  32  96 MISG      29.99S VSB 1/2
SHEBOYGAN      CLOUDY    34  32  92 W10       29.99R FOG
$$

LMZ563-521-522-541>543-181100-
LAKESHORE

STATION/POSITION TIME  TEMP    WIND        PRES    VSBY  WAVE
                       AIR SEA DIR/SP/G                  HT/PER
                 (UTC) (F)     (DEG/KT/KT) (MB)    (MI)  (FT/S)
SHEBOYGAN LKSHOR 1000   35     250/  6/  7 1016.3R
KEWAUNEE LKSHORE 0942   33     250/  3/  4 1014.6R
ALGOMA MARINA    0953           CALM  /  5   N/A
NORTHPORT PIER   1000   33      CALM  /  9 1013.9
SISTER BAY LKSHO 0950   33     280/  4/  6   N/A
MENOMINEE LKSHOR 0936          200/  7/  9 1013.2F
$$




USA.gov is the U.S. government's official web portal to all federal, state and local government web resources and services.